Flag Weather past 2 weeks in Fürstenfeldbruck, Bavaria, Germany

Now
32 °F

Fog.


Feels Like: 25 °F
Forecast: 35 / 43 °F
Wind: 8 mph from East

Location: Lechfeld

Current Time: Nov 29, 2014 at 3:48:53 AM

Latest Report: Nov 29, 2014 at 2:20 AM


Visibility: 0 mi

Pressure: 29.89 "Hg

Humidity: 100%

Dew point: 32 °F

Location of FürstenfeldbruckLocation

Historic Weather in Fürstenfeldbruck — Graph

°F

Fürstenfeldbruck temperature yesterday

Maximum temperature yesterday: 37 °F (at 12:20 AM)
Minimum temperature yesterday: 32 °F (at 10:20 PM)
Average temperature yesterday: 34 °F

Past Weeks' High & Low Weather Summary

 TemperatureHumidityPressure
High54 °F (Nov 24, 2:20 PM)100% (Nov 14, 12:20 AM)30.27 "Hg (Nov 14, 12:20 AM)
Low28 °F (Nov 17, 2:20 AM)67% (Nov 16, 1:20 PM)29.47 "Hg (Nov 15, 11:20 PM)
Average39 °F96%29.96 "Hg
* Reported Nov 14 12:20 AM — Nov 29 12:20 AM, Fürstenfeldbruck, Weather by CustomWeather, © 2014

Note: Actual official high and low records may vary slightly from our data, if they occured in-between our weather recording intervals... More about our weather records

Advertising

Fürstenfeldbruck weather history for previous 24 hours

 ConditionsComfort  
Time TempWeatherWind HumidityBarometerVisibility
12:20 AM
Nov 29
32 °FFog.8 mph100%29.89 "Hg0 mi
11:20 PM
Nov 28
32 °FFog.9 mph100%29.89 "Hg0 mi
10:20 PM32 °FFog.9 mph100%29.89 "Hg0 mi
9:20 PM34 °FFog.8 mph100%29.89 "Hg0 mi
8:20 PM34 °FFog.10 mph100%29.86 "Hg0 mi
7:20 PM34 °FFog.12 mph100%29.86 "Hg1 mi
6:20 PM34 °FFog.12 mph100%29.83 "Hg1 mi
5:20 PM34 °FFog.12 mph100%29.83 "Hg1 mi
4:20 PM34 °FFog.10 mph100%29.83 "Hg0 mi
3:20 PM34 °FFog.12 mph100%29.83 "Hg0 mi
2:20 PM34 °FFog.13 mph100%29.83 "Hg1 mi
1:20 PM34 °FFog.10 mph100%29.83 "Hg0 mi
12:20 PM34 °FFog.10 mph100%29.83 "Hg0 mi
11:20 AM34 °FFog.10 mph100%29.86 "Hg0 mi
10:20 AM34 °FFog.10 mph100%29.86 "Hg0 mi
9:20 AM34 °FFog.10 mph100%29.83 "Hg0 mi
8:20 AM34 °FFog.8 mph100%29.83 "Hg0 mi
7:20 AM34 °FFog.7 mph100%29.83 "Hg0 mi
6:20 AM34 °FFog.9 mph100%29.83 "Hg0 mi
5:20 AM36 °FFog.10 mph100%29.83 "Hg0 mi
4:20 AM36 °FFog.7 mph100%29.83 "Hg0 mi
3:20 AM36 °FFog.6 mph100%29.83 "Hg0 mi
Weather by CustomWeather, © 2014

See weather overviewHow to use our weather pages